User: anonymous   Login
Location: Observatory
(49.4490°N, 2.6360°W)
Time: 09:11:44
(UTC+00:00)
Language:

CAS-4A - Orbit

View from above orbital plane
View from above orbital plane
View from above satellite
View from above satellite

Ground track
Ground track

The orbit data is extracted from the following two-line orbital elements,

1 42761U 17034D   25281.34159269  .04203186  90411-5  12507-2 0  9993
2 42761  42.9927 303.5081 0008135  81.2710 278.9099 16.26032227461692
Epoch (UTC): 08 October 2025 08:11:53
Eccentricity: 0.0008135
inclination: 42.9927°
perigee height: 198 km
apogee height: 208 km
right ascension of ascending node: 303.5081°
argument of perigee: 81.2710°
revolutions per day: 16.26032227
mean anomaly at epoch: 278.9099°
orbit number at epoch: 46169

The dashed part of the orbit path shows where the satellite is in the earth's shadow,  

DLR